Location: Peebles
(55.6412°N, 3.1714°W)
Time: 00:58:20
(UTC+01:00)

deb r/b Ablestar - Pass Details

Date: 07 July 2022
Orbit: 859 x 1154 km, 67.2° (Epoch: 13 August)

Event Time Altitude Azimuth Distance (km) Brightness Sun altitude
Rises 23:58:02 0° 315° (NW) 4,001 ? -9.9°
Reaches altitude 10° 00:00:45 10° 317° (NW) 3,055 ? -10.1°
Maximum altitude 00:08:06 72° 42° (NE) 1,213 ? -10.4°
Drops below altitude 10° 00:15:21 10° 127° (SE) 3,015 ? -10.6°
Enters shadow 00:16:38 - 128° (SE) 3,465 ? -10.7°
